Location: Bleckwedel
(52.9498°N, 9.5047°E)
Time: 12:40:41
(UTC+00:00)

Daily predictions for brighter satellites

Satellite Brightness Start Highest point End
(mag) Time Altitude Azimuth Time Altitude Azimuth Time Altitude Azimuth
Tsikada Rocket 4.0 19:43:39 10° N 19:49:51 71° ENE 19:55:59 10° SSE
Cosmos 1758 Rocket 4.2 19:46:27 10° N 19:50:37 40° ENE 19:54:47 10° SE
Meteor 1-27 4.2 19:45:38 10° S 19:51:14 72° E 19:56:49 10° NNE
ADEOS 3.8 19:46:46 10° S 19:51:58 74° WSW 19:57:13 10° NNW
Cosmos 2278 4.3 19:46:42 10° NNW 19:52:15 47° NE 19:57:44 10° ESE
Cosmos 2084 Rocket 4.1 19:49:50 10° NW 19:53:52 47° SW 19:57:57 10° SSE
USA 306 1.8 19:51:28 10° SW 19:54:39 49° SSE 19:56:51 10° E
Cosmos 1302 Rocket 4.0 19:50:02 10° S 19:55:08 62° ESE 20:00:16 10° NNE
SL-16 R/B 2.5 19:51:45 10° NNW 19:57:23 59° NE 20:02:59 10° SE
CZ-4B R/B 3.4 19:55:06 10° SE 19:58:11 33° ENE 20:01:21 10° N
Cosmos 2016 Rocket 4.0 19:54:42 10° S 20:00:57 83° E 20:07:10 10° NNE
Cosmos 724 4.3 19:55:01 10° SW 20:01:02 80° SE 20:06:57 10° NE
CZ-4C R/B 2.1 19:56:44 10° SW 20:01:08 79° NW 20:06:56 10° NE
SKYMED 3 4.3 19:57:54 10° NNE 20:01:52 85° ESE 20:05:50 10° SSW
SL-08 R/B 3.3 19:57:11 10° NNE 20:02:02 70° ESE 20:06:46 10° S
Helios 1A Rocket 3.2 20:07:24 10° N 20:10:28 50° WNW 20:13:31 10° SW
COSMOS 2406 3.7 20:06:00 10° S 20:11:16 39° ESE 20:16:36 10° NE
Cosmos 1743 3.9 20:09:52 10° NNW 20:12:33 29° W 20:15:13 10° SSW
Terra 3.0 20:09:11 10° SSW 20:13:37 41° W 20:18:05 10° NNW
Cosmos 1980 Rocket 3.7 20:09:00 10° NW 20:14:01 33° WSW 20:19:01 10° SSW
Meteor 1-20 Rocket 4.4 20:09:15 10° N 20:14:48 64° ENE 20:20:25 10° SSE
YAOGAN 11 4.2 20:10:31 10° NNE 20:14:55 62° ESE 20:19:20 10° S
Cosmos 1602 Rocket 4.2 20:11:00 10° N 20:15:05 40° ENE 20:18:56 11° SE
NOSS 3-3 (C) 3.9 20:11:14 10° SSW 20:16:17 48° ESE 20:22:19 10° NE
CZ-4 R/B 3.8 20:14:20 10° SW 20:16:53 18° W 20:19:28 10° NW
USA 245 4.3 20:14:03 10° SSE 20:19:56 75° ENE 20:25:28 10° NNW
Cosmos 1933 3.9 20:19:19 10° SSE 20:22:46 35° E 20:26:16 10° NNE
Cosmos 2333 Rocket 2.3 20:17:03 10° NNW 20:22:47 77° ENE 20:28:05 12° SE
NOSS 3-4 (A) 3.9 20:21:02 10° NW 20:27:30 78° NE 20:34:49 11° SE
Cosmos 44 Rocket 4.3 20:23:04 10° WSW 20:28:06 55° NW 20:33:15 10° NE
NOSS 3-4 (C) 3.9 20:21:40 10° NW 20:28:09 77° NE 20:35:28 11° SE
Cosmos 2061 Rocket 4.0 20:25:08 10° S 20:31:22 88° ESE 20:37:44 10° N
Cosmos 1626 Rocket 3.6 20:27:25 10° NNW 20:31:49 80° W 20:36:11 10° S
Cosmos 1782 3.7 20:29:16 10° SSW 20:32:38 43° WNW 20:36:03 10° N
Cosmos 1805 3.6 20:29:53 10° N 20:32:58 37° ENE 20:35:11 16° SE
ATLAS 2AS CENTAUR R/B 4.1 20:31:50 10° W 20:38:17 41° NNW 20:44:42 10° NE
SPOT 3 Rocket 3.6 20:33:28 11° SSE 20:38:32 86° WSW 20:43:42 10° NNW
Cosmos 2098 Rocket 3.8 20:35:17 13° SSE 20:39:05 36° E 20:42:57 10° NNE
Cosmos 2360 Rocket 2.4 20:34:54 10° NNW 20:40:34 65° NE 20:45:21 15° SE
Cosmos 1607 4.1 20:35:21 10° SW 20:41:33 79° NW 20:47:53 10° NE
Ariane Rocket 3.0 20:37:06 13° SSE 20:41:43 81° ENE 20:46:49 10° NNW
Cosmos 220 Rocket 4.5 20:39:51 12° S 20:43:12 36° ESE 20:46:58 10° NE
Meteor 1-25 Rocket 4.2 20:41:13 10° NNW 20:46:57 84° ENE 20:51:51 14° SSE
Cosmos 1606 Rocket 4.3 20:49:16 17° SSE 20:52:05 35° E 20:56:02 10° NNE
Cosmos 2151 3.2 20:49:32 10° NNW 20:53:37 65° W 20:57:14 13° S
Helios 1B rocket 4.0 20:52:03 11° ESE 20:54:14 18° ENE 20:56:42 10° NNE
Okean 1 4.2 20:52:40 19° SE 20:54:18 26° E 20:57:22 10° NNE
Cosmos 2219 Rocket 2.6 20:49:05 10° NNW 20:54:40 56° NE 20:59:14 15° SE
Okean O Rocket 3.2 20:54:03 10° SSW 20:57:49 30° W 21:01:37 10° NNW
Cosmos 1726 Rocket 4.3 20:59:17 19° SE 21:01:22 31° E 21:04:57 10° NNE
Cosmos 1461 2.5 20:59:27 10° SSW 21:03:05 57° SE 21:06:42 10° NE
CZ-2C R/B 1.9 21:01:38 23° S 21:03:10 74° WSW 21:05:58 10° NNW
Cosmos 990 Rocket 4.4 20:58:58 10° NNW 21:04:04 55° ENE 21:07:49 18° SE
RESURS DK-1 4.3 21:02:28 10° NNW 21:05:33 21° NE 21:08:38 10° E
Okean 1-7 Rocket 3.6 21:03:17 10° N 21:07:46 80° ENE 21:10:52 20° SSE
BREEZE-M DEB (TANK) 4.1 20:58:54 10° WSW 21:11:14 56° S 21:16:12 10° E
Cosmos 2322 Rocket 2.2 21:05:59 10° NNW 21:11:40 79° WSW 21:15:45 20° SSE
Cosmos 2034 Rocket 4.4 21:07:11 17° SSE 21:11:48 48° E 21:17:50 10° NNE
CZ-4B R/B 3.9 21:07:48 14° S 21:11:49 55° WSW 21:16:36 10° NNW
USA 186 4.2 21:10:38 10° WSW 21:11:58 13° W 21:13:18 10° WNW
Cosmos 1437 Rocket 2.9 21:10:05 10° SSW 21:13:36 61° WNW 21:17:11 10° N
Cosmos 1544 Rocket 4.2 21:09:32 10° SSW 21:13:48 56° WNW 21:18:04 10° N
Cosmos 1777 Rocket 4.1 21:10:17 10° NNW 21:15:32 76° WSW 21:19:08 20° SSE
Cosmos 2082 Rocket 3.3 21:11:50 10° WSW 21:17:21 47° NW 21:22:53 10° NNE
USA 306 1.2 21:19:05 10° W 21:21:37 61° N 21:21:47 56° NNE
Cosmos 1503 Rocket 4.0 21:17:23 10° NNW 21:22:37 84° WSW 21:25:58 22° SSE
ISS -3.9 21:21:44 10° W 21:25:04 71° S 21:27:26 18° E
Nadezhda 4 Rocket 4.0 21:21:40 10° NNW 21:27:48 80° W 21:32:26 18° S
Cosmos 44 3.7 21:23:34 10° NW 21:28:59 69° NE 21:32:52 19° ESE
Cosmos 2237 Rocket 4.0 21:24:37 10° NNW 21:29:17 25° NE 21:33:55 10° E
Meteor 2-10 4.4 21:25:47 10° NNW 21:31:30 70° W 21:35:38 19° S
Cosmos-2242 3.7 21:30:18 25° SE 21:31:57 36° E 21:35:45 10° NNE
USA 290 2.2 21:33:40 36° S 21:34:39 54° ESE 21:37:44 10° NE
NOSS 3-3 (A) 4.4 21:30:19 10° WSW 21:35:43 62° NW 21:42:20 10° NE
Cosmos 1707 3.0 21:36:02 29° ESE 21:36:14 29° E 21:38:45 10° NNE
Cosmos 1354 Rocket 4.0 21:30:58 10° NNW 21:36:15 89° ENE 21:39:24 25° SSE
COSMOS 2428 3.5 21:32:55 10° NNW 21:38:25 45° NE 21:42:51 15° ESE
SL-16 R/B 3.5 21:36:16 10° NW 21:41:11 31° WSW 21:45:09 14° SSW
Cosmos 1825 Rocket 3.9 21:37:51 10° NNW 21:42:08 58° W 21:44:44 22° SSW
Cosmos 2195 Rocket 4.5 21:39:45 10° NNW 21:46:01 84° W 21:50:09 22° S
Cosmos 372 Rocket 4.3 21:42:25 10° NNW 21:47:29 57° ENE 21:50:33 23° SE
Cosmos 1953 Rocket 3.5 21:43:08 10° NNW 21:47:31 84° W 21:49:43 29° S
CZ-4C R/B 4.0 21:45:38 10° WNW 21:50:12 34° NNW 21:56:01 10° NE
Cosmos 2026 Rocket 4.0 21:44:20 10° N 21:50:46 90° SW 21:54:55 24° S
Cosmos 1271 Rocket 3.9 21:52:42 21° E 21:53:04 21° E 21:55:43 10° NE
COSMOS 2406 4.2 21:49:56 10° SW 21:55:29 49° NW 22:01:05 10° NNE
Cosmos 2221 4.0 21:54:54 20° ESE 21:56:06 22° E 21:59:21 10° NE
Aureole 1 Rocket 3.9 21:51:14 10° NNW 21:56:47 86° ENE 22:00:52 25° SSE
Cosmos 2058 Rocket 3.2 21:57:50 32° SSE 21:59:41 59° E 22:03:57 10° NNE
Cosmos 1766 2.7 21:57:58 10° NNW 22:01:12 82° W 22:02:02 46° S
Cosmos 540 Rocket 3.4 21:58:20 23° SSW 22:01:37 73° ESE 22:06:45 10° NNE
Cosmos 1937 Rocket 4.1 22:00:31 10° NNW 22:05:30 47° ENE 22:08:43 21° ESE
Cosmos 1842 3.5 22:05:49 33° ESE 22:06:04 34° E 22:08:59 10° NNE
Cosmos 2333 Rocket 3.9 22:02:06 10° NW 22:06:29 23° WSW 22:10:06 13° SSW
Spot 4 4.1 22:07:43 28° SE 22:10:07 61° ENE 22:14:52 10° N
Geosat 3.9 22:05:58 10° NNE 22:11:01 82° ESE 22:14:39 19° SSW
Cosmos 468 Rocket 4.2 22:10:44 29° S 22:13:13 54° ESE 22:18:21 10° NNE
ARIANE 5 R/B 2.8 22:11:52 31° SE 22:13:53 65° ENE 22:18:19 10° N
ALOS 2 3.0 22:13:10 29° SE 22:15:10 55° ENE 22:19:28 10° N
Cosmos 1833 4.1 22:11:32 17° SSW 22:16:01 86° ESE 22:21:41 10° NNE
Cosmos 2297 Rocket 3.8 22:17:12 17° ESE 22:18:41 18° E 22:22:27 10° ENE
Cosmos 1536 2.7 22:16:37 10° NNW 22:20:17 65° W 22:21:26 40° SSW
Meteor 2-6 Rocket 4.5 22:18:01 28° SSE 22:21:11 63° E 22:27:04 10° NNE
Cosmos 2360 Rocket 3.5 22:19:24 10° NW 22:24:09 28° WSW 22:27:05 18° SSW
Cosmos 2322 3.7 22:18:25 10° NNW 22:24:10 88° ENE 22:27:17 28° SSE
Helios 1A 3.2 22:21:01 10° N 22:24:54 60° WNW 22:26:53 26° SW
Helios 1B rocket 2.6 22:25:59 36° SW 22:26:55 47° W 22:30:20 10° NNW
CSL-04 DEB 4.4 22:27:08 39° SSW 22:28:07 54° WSW 22:31:43 10° NNW
USA 234 3.8 22:23:49 10° ENE 22:29:44 35° SE 22:32:06 27° S
ATLAS 2AS CENTAUR R/B 4.3 22:24:37 10° WNW 22:30:48 34° N 22:36:55 10° ENE
PSLV R/B 4.2 22:29:23 10° NNE 22:33:28 42° E 22:34:43 33° SE
Cosmos 1092 Rocket 4.4 22:30:39 10° NNW 22:36:37 53° W 22:40:16 24° SSW
Cosmos 1898 Rocket 3.4 22:32:09 10° NNW 22:37:21 82° WSW 22:39:45 33° SSE
Cosmos 2219 Rocket 3.2 22:33:21 10° NW 22:38:22 33° WSW 22:40:55 23° SSW
SeaSat 1 3.8 22:34:44 10° ESE 22:39:10 36° NE 22:43:38 10° NNW
Cosmos 1470 2.2 22:36:27 10° NNW 22:39:46 75° W 22:40:17 58° SSW
Cosmos 1763 Rocket 4.0 22:35:26 14° SW 22:39:55 57° WNW 22:45:08 10° NNE
RESURS DK-1 2.2 22:39:22 10° NW 22:43:21 73° WSW 22:44:26 45° SSE
TSX-5 3.9 22:45:59 10° NW 22:48:56 39° WSW 22:48:57 39° WSW
Cosmos 1975 2.5 22:47:04 10° NNW 22:50:45 76° W 22:51:35 51° S
Cosmos 2322 Rocket 4.2 22:51:29 10° WNW 22:54:48 16° W 22:57:32 12° SW
MetOp-A 3.9 22:53:43 32° SSE 22:55:58 72° ENE 23:00:38 10° NNW
NOSS 0 Rocket 3.9 22:50:36 10° NW 22:56:48 79° WSW 23:00:06 29° SSE
NOSS 8 (H) 4.0 22:55:11 10° NW 22:58:03 76° NE 22:58:24 63° ESE
SL-16 R/B 3.9 22:56:02 10° NNW 23:01:05 31° NE 23:06:06 10° ESE
Lacrosse 4 Rocket 3.3 23:01:08 16° ESE 23:01:08 16° ESE 23:03:34 10° ENE
ISS -2.4 22:58:31 10° W 23:00:22 27° WSW 23:00:22 27° WSW
SAR-Lupe-2 3.4 23:02:14 55° SW 23:02:39 62° WSW 23:05:58 10° NNW
Meteor 2-9 Rocket 4.4 23:02:45 10° NNW 23:08:01 57° W 23:10:28 31° SSW
Cosmos 1707 4.4 23:07:32 14° W 23:08:32 16° WNW 23:10:25 10° NNW
CZ-2C R/B 4.1 23:05:38 10° N 23:10:00 56° WNW 23:12:13 28° SW
Cosmos 841 Rocket 3.4 23:09:01 33° SSW 23:11:22 79° ESE 23:16:39 10° NNE
Cosmos 1812 Rocket 3.5 23:10:37 41° S 23:12:09 87° E 23:16:36 10° NNE
Intercosmos 24 3.8 23:09:11 10° N 23:13:17 71° ENE 23:14:16 45° SSE
Cosmos 2237 Rocket 2.2 23:08:27 10° NNW 23:14:11 84° ENE 23:17:27 26° SE
Cosmos 2279 Rocket 4.3 23:14:25 24° SSW 23:18:13 61° WNW 23:24:27 10° N
Cosmos 1980 3.6 23:12:32 10° NNW 23:18:14 86° WSW 23:21:16 29° SSE
Meteor 1-11 Rocket 3.8 23:13:06 10° NNW 23:18:47 71° W 23:21:21 33° S
CZ-2C R/B 2.6 23:18:46 31° SSE 23:21:21 84° ENE 23:26:35 10° NNW
NOSS 8 (E) 3.9 23:18:43 10° NW 23:21:38 88° NE 23:21:51 75° SE
COSMOS 2428 3.3 23:17:19 10° NW 23:22:41 43° WSW 23:24:48 31° SSW
ACS3 Solar Sail 2.9 23:19:54 10° NNE 23:25:12 32° E 23:28:30 19° SE
Meteor 2-4 Rocket 4.1 23:23:24 29° SSE 23:25:49 50° E 23:31:10 10° NNE
Meteor 1-10 Rocket 4.3 23:23:16 31° SSW 23:26:17 86° WNW 23:32:17 10° NNE
Cosmos 1271 Rocket 3.8 23:26:03 25° WSW 23:27:08 31° WNW 23:30:12 10° N
Cosmos 2227 Rocket 3.5 23:26:17 21° SE 23:28:25 26° ESE 23:33:04 10° NE
Meteor 2-20 4.4 23:29:37 31° S 23:32:47 88° E 23:38:54 10° NNE
Cosmos 2221 3.2 23:31:11 29° SW 23:32:50 45° WNW 23:36:54 10° N
Cosmos 192 4.5 23:30:30 10° NNW 23:35:27 72° ENE 23:38:13 26° SE
NOSS 8 (F) 3.9 23:34:05 10° NW 23:36:57 74° SW 23:36:57 74° SW
GP-B 3.3 23:32:49 10° N 23:37:08 60° W 23:38:41 36° SSW
Cosmos 1238 Rocket 2.9 23:37:44 44° SSE 23:38:52 69° E 23:43:11 10° NNE
BREEZE-M DEB (TANK) 4.4 23:24:52 10° SW 23:39:08 39° SSE 23:43:55 10° E
CZ-4C R/B 4.3 23:34:45 10° NW 23:39:58 34° NNE 23:46:33 10° ENE
Cosmos 1842 Rocket 4.3 23:38:31 30° SE 23:40:07 42° E 23:44:18 10° NNE
Cosmos 2263 Rocket 3.8 23:37:50 16° SE 23:40:11 21° ESE 23:44:16 10° NE
Meteor 1-27 Rocket 3.7 23:39:18 32° S 23:42:12 85° E 23:47:59 10° NNE
Cosmos 2266 Rocket 4.3 23:39:01 10° NNW 23:44:49 50° W 23:47:46 28° SSW
Cosmos 1937 Rocket 4.4 23:42:40 10° NW 23:47:13 32° WSW 23:48:46 27° SW
ARIANE 5 R/B 4.4 23:49:14 17° WSW 23:50:37 19° W 23:53:47 10° NW
Sich 1 3.4 23:46:42 10° N 23:50:48 55° ENE 23:52:43 29° SE
ALOS 2 4.2 23:50:33 19° WSW 23:51:49 21° W 23:55:12 10° NW
Landsat 5 3.4 23:49:30 10° NNE 23:53:37 71° ESE 23:54:53 41° S
